Location: Unspecified
(41.6540°N, 0.0000°E)
Time: 04:35:21
(UTC+00:00)

DMSP BIV-1 Rocket - Visible Passes

Search period start: 05 April 2026 00:00
Search period end: 15 April 2026 00:00
Orbit: 657 x 816 km, 98.2° (Epoch: 29 March)

Date Brightness Start Highest point End Pass type
(mag) Time Alt. Az. Time Alt. Az. Time Alt. Az.
5 Apr 7.5 02:21:17 17° E 02:23:08 22° ENE 02:26:36 10° NNE visible
5 Apr 5.7 04:00:51 35° WSW 04:01:23 36° W 04:05:34 10° NNW visible
6 Apr 5.3 03:14:56 48° SSE 03:16:08 75° ENE 03:20:39 10° N visible
6 Apr 7.1 04:54:45 10° W 04:55:04 10° W 04:55:25 10° W visible
7 Apr 7.2 02:29:01 18° ESE 02:31:10 26° ENE 02:34:53 10° NNE visible
7 Apr 6.0 04:08:35 28° WSW 04:09:30 30° W 04:13:29 10° NW visible
8 Apr 5.1 03:22:40 42° SSE 03:24:12 90° SW 03:28:44 10° NNW visible
9 Apr 6.9 02:36:45 19° ESE 02:39:11 31° ENE 02:43:09 10° N visible
9 Apr 6.2 04:16:19 22° WSW 04:17:38 25° W 04:21:21 10° NW visible
10 Apr 8.2 01:52:51 10° E 01:54:27 12° ENE 01:56:04 10° NE visible
10 Apr 5.0 03:30:24 35° S 03:32:17 74° WSW 03:36:48 10° NNW visible
11 Apr 6.6 02:44:29 19° SE 02:47:13 37° ENE 02:51:22 10° N visible
11 Apr 6.5 04:24:03 17° WSW 04:25:47 20° W 04:29:09 10° NW visible
12 Apr 8.1 02:00:05 10° E 02:02:26 14° ENE 02:04:46 10° NNE visible
12 Apr 5.1 03:38:08 28° S 03:40:22 60° W 03:44:51 10° NNW visible
13 Apr 6.2 02:52:12 18° SE 02:55:15 45° ENE 02:59:33 10° N visible
13 Apr 6.7 04:31:47 13° SW 04:33:55 17° W 04:36:51 10° NW visible
14 Apr 7.9 02:07:33 10° ESE 02:10:25 17° ENE 02:13:17 10° NNE visible
14 Apr 5.3 03:45:52 23° SSW 03:48:28 49° W 03:52:51 10° NNW visible
